Location: Arthez
(43.0833°N, 0.2500°W)
Time: 01:34:42
(UTC+00:00)

NOSS 3-1 (A) - Pass Details

Date: 04 June 2022
Orbit: 711 x 1501 km, 63.4° (Epoch: 21 May)

Event Time Altitude Azimuth Distance (km) Brightness Sun altitude
Rises 23:32:32 0° 315° (NW) 4,074 7.5 -24.1°
Reaches altitude 10° 23:35:27 10° 306° (NW) 3,221 6.7 -24.2°
Maximum altitude 23:42:12 32° 248° (WSW) 2,195 5.1 -24.3°
Enters shadow 23:44:30 28° 221° (SW) 2,398 5.1 -24.3°
